[[{"header":{"parameterUnit":"m.s-1","parameterCategory":2,"la1":30.2991,"la2":30.254,"lo1":-89.0895,"lo2":-89.0444,"dy":0.0017,"dx":0.0017,"nx":28,"ny":28,"refTime":"2025-07-11T09:00:00:Z","depth":"0","parameterNumber":2,"parameterNumberName":"U-component_of_CURRENTS"},"data":[0,0,0,0,0,0,0,0,0,0,0,0,0,0,0,0,0,0,0,0,0,0,0,0,0,0,0,0,0,0,0,0,0,0,0,0,0,0,0,0,0,0,0,0,0,0,0,0,0,0,0,0,0,0,0,0,0,0,0.0538,0.054,0,0.0646,0.0647,0.0648,0.063,0.0628,0.0626,0.0624,0.0741,0.0745,0.075,0,0,0,0,0,0,0,0,0,0,0,0,0,0.0404,0.0406,0.0538,0.054,0.0541,0.0645,0.0647,0.0648,0.063,0.0628,0.0625,0.0623,0.0739,0.0745,0.0751,0,0,0,0,0,0,0,0,0,0,0,0,0,0.0482,0.0407,0.0538,0.0544,0.0546,0.0645,0.0647,0.0649,0.063,0.0628,0.0625,0.0622,0.0737,0.0744,0.0751,0.0852,0,0,0.0774,0.0777,0,0,0,0,0,0,0,0,0.0477,0.0487,0.0542,0.0544,0.0546,0.0621,0.0642,0.0717,0.0631,0.0598,0.0624,0.0621,0.0704,0.0714,0.074,0.0858,0.0863,0.0774,0.0779,0.0782,0.0784,0,0,0,0,0,0,0,0.0472,0.0482,0.0581,0.0544,0.0546,0.0572,0.0579,0.0657,0.0666,0.0601,0.06,0.0613,0.0705,0.0733,0.0742,0.0864,0.0774,0.0781,0.0785,0.0788,0.1208,0.1215,0,0,0,0,0,0,0.0458,0.0477,0.0577,0.0584,0.0504,0.0576,0.0584,0.06,0.0664,0.0672,0.0615,0.0612,0.0722,0.0734,0.0746,0.0957,0.0782,0.0789,0.0793,0.1202,0.121,0.1217,0,0,0,0,0,0,0.0455,0.0466,0.0573,0.0533,0.0548,0.0581,0.0599,0.0604,0.0635,0.0675,0.0682,0.0641,0.072,0.0736,0.0863,0.0957,0.0792,0.0798,0.1194,0.1204,0.1214,0.1322,0,0,0,0,0,0,0.0451,0.0465,0.0489,0.0532,0.055,0.0653,0.0602,0.0608,0.0647,0.0643,0.0701,0.0708,0.0719,0.0853,0.0871,0.0964,0.0804,0.1185,0.1198,0.121,0.131,0.1334,0.1356,0,0,0,0,0,0.0446,0.0496,0.049,0.0503,0.0576,0.0655,0.0669,0.0681,0.0651,0.0693,0.0747,0.0706,0.0947,0.0864,0.0883,0.0981,0.1179,0.1195,0.1209,0.1299,0.133,0.1355,0,0,0,0,0,0,0.047,0.05,0.0494,0.0555,0.0606,0.0652,0.07,0.0697,0.0771,0.0768,0.0786,0.0802,0.0957,0.0972,0.088,0.1151,0.1061,0.1081,0.1123,0.1152,0.1175,0.1212,0.081,0,0,0,0,0,0.0482,0.0518,0.0557,0.0613,0.0637,0.0669,0.0705,0.0711,0.0771,0.0797,0.084,0.092,0.1042,0.109,0.1185,0.1322,0.1387,0.1408,0.1431,0.145,0.1502,0.1729,0.1777,0.1268,0.1268,0.1267,0,0,0.0511,0.0533,0.0556,0.0619,0.0657,0.0723,0.0685,0.0749,0.0826,0.0806,0.0934,0.1002,0.1102,0.1266,0.1336,0.128,0.162,0.1469,0.1484,0.1527,0.175,0.18,0.1843,0.1278,0.1276,0.1275,0,0,0.0585,0.0604,0.0653,0.0695,0.0751,0.0781,0.08,0.0857,0.0907,0.1034,0.1067,0.1205,0.1335,0.1453,0.1525,0.1745,0.1742,0.1762,0.1897,0.2116,0.2159,0.2197,0.2283,0.2329,0.1763,0.1763,0.1763,0,0.0621,0.0681,0.0689,0.0747,0.0805,0.0807,0.0891,0.0957,0.1052,0.1145,0.1089,0.1402,0.1445,0.1719,0.1785,0.1797,0.1877,0.1762,0.2143,0.2183,0.2221,0.2301,0.235,0.177,0.1769,0.1769,0.1768,0,0.0725,0.0775,0.0819,0.0885,0.0952,0.1029,0.1102,0.1178,0.1219,0.1304,0.1559,0.166,0.1854,0.1888,0.1893,0.2208,0.2159,0.2144,0.2054,0.2278,0.2347,0.2397,0.178,0.1778,0.1776,0.1774,0,0,0.0817,0.0875,0.0894,0.0955,0.1031,0.1114,0.1239,0.1404,0.1545,0.1649,0.1887,0.2082,0.2144,0.2238,0.229,0.2454,0.2735,0.241,0.2418,0.2463,0.3153,0.3054,0.3096,0.2791,0.2802,0.281,0.3068,0,0.0909,0.1035,0.104,0.1196,0.1288,0.1321,0.1471,0.1616,0.1732,0.1955,0.2119,0.236,0.2282,0.2405,0.2571,0.273,0.2883,0.2662,0.2961,0.2968,0.283,0.3159,0.3128,0.3355,0.3115,0.3124,0.3129,0,0.1032,0.1102,0.126,0.1397,0.1445,0.1545,0.1788,0.1912,0.2181,0.2282,0.2511,0.2635,0.2936,0.2824,0.3203,0.3069,0.3139,0.3208,0.322,0.314,0.2968,0.3114,0.3453,0.3315,0.3205,0.3199,0.3193,0,0.1176,0.1271,0.1413,0.1458,0.161,0.172,0.182,0.205,0.2217,0.2525,0.2675,0.3006,0.3197,0.3402,0.3496,0.3406,0.3863,0.3753,0.372,0.3706,0.3751,0.3724,0.3981,0.405,0.405,0.4049,0.4048,0,0.1329,0.1458,0.1492,0.1602,0.1826,0.1865,0.215,0.2269,0.2506,0.2735,0.2884,0.3114,0.3362,0.36,0.3665,0.3859,0.4011,0.3843,0.384,0.3776,0.3751,0.3681,0.3649,0.4059,0.4056,0.4055,0.4053,0,0.1575,0.1556,0.1755,0.1882,0.1924,0.2125,0.2325,0.2501,0.2663,0.2957,0.307,0.3315,0.3593,0.377,0.4092,0.4062,0.4192,0.4255,0.4087,0.4062,0.3854,0.383,0.4002,0.3966,0.4316,0.4316,0.4316,0,0.1754,0.1849,0.2,0.2086,0.2168,0.2381,0.2512,0.2638,0.277,0.3052,0.3192,0.3511,0.3678,0.4068,0.4196,0.4369,0.4238,0.4362,0.4204,0.3941,0.3916,0.37,0.3642,0.4278,0.4278,0.4278,0.4278,0,0.209,0.2113,0.2244,0.24,0.2523,0.2658,0.2799,0.2895,0.3005,0.3166,0.3323,0.3467,0.3812,0.3978,0.4193,0.4299,0.4231,0.4356,0.4234,0.408,0.3737,0.3661,0.3882,0.4276,0.4277,0.4277,0.4277,0.4277,0.2339,0.2481,0.2547,0.2697,0.2781,0.2812,0.2885,0.2939,0.3055,0.3143,0.3317,0.3424,0.3728,0.4029,0.4125,0.4233,0.418,0.4145,0.4183,0.4012,0.3884,0.4019,0.4298,0.4298,0.4298,0.4298,0.4298,0,0.2578,0.2638,0.2797,0.2869,0.2892,0.2917,0.2958,0.2933,0.2924,0.3057,0.3131,0.3355,0.3573,0.3822,0.409,0.405,0.3929,0.4007,0.3762,0.3753,0.4048,0.3943,0.3979,0.3979,0.3979,0.3979,0.3979,0.3979,0.2682,0.2827,0.2847,0.2871,0.2887,0.2841,0.2805,0.2764,0.2792,0.2815,0.2881,0.3001,0.3355,0.3813,0.3956,0.3936,0.3735,0.3633,0.359,0.3821,0.3833,0.3845,0.3735,0.3727,0.3728,0.3161,0.3158,0.3156]},{"header":{"parameterUnit":"m.s-1","parameterCategory":2,"la1":30.2991,"la2":30.254,"lo1":-89.0895,"lo2":-89.0444,"dy":0.0017,"dx":0.0017,"nx":28,"ny":28,"refTime":"2025-07-11T09:00:00:Z","depth":"0","parameterNumber":3,"parameterNumberName":"V-component_of_CURRENTS"},"data":[0,0,0,0,0,0,0,0,0,0,0,0,0,0,0,0,0,0,0,0,0,0,0,0,0,0,0,0,0,0,0,0,0,0,0,0,0,0,0,0,0,0,0,0,0,0,0,0,0,0,0,0,0,0,0,0,0,0,0.0363,0.0363,0,0.0384,0.0384,0.0385,0.0393,0.0393,0.0393,0.0393,0.0448,0.045,0.0451,0,0,0,0,0,0,0,0,0,0,0,0,0,0.0357,0.0357,0.0363,0.0363,0.0364,0.0384,0.0384,0.0385,0.0393,0.0393,0.0393,0.0393,0.0448,0.0449,0.0451,0,0,0,0,0,0,0,0,0,0,0,0,0,0.0367,0.0357,0.0363,0.037,0.0371,0.0384,0.0384,0.0385,0.0393,0.0393,0.0393,0.0393,0.0447,0.0449,0.0452,0.0469,0,0,0.0459,0.046,0,0,0,0,0,0,0,0,0.0367,0.0368,0.0369,0.0369,0.037,0.0385,0.0402,0.0415,0.0393,0.0385,0.0393,0.0393,0.043,0.0434,0.0438,0.0472,0.0474,0.0459,0.046,0.0461,0.0462,0,0,0,0,0,0,0,0.0366,0.0367,0.0372,0.0369,0.037,0.0381,0.0382,0.0405,0.0409,0.0386,0.0386,0.0388,0.0431,0.0436,0.044,0.0475,0.0459,0.0461,0.0462,0.0463,0.0655,0.0658,0,0,0,0,0,0,0.0361,0.0366,0.0371,0.0373,0.0367,0.0381,0.0382,0.0381,0.0408,0.0412,0.0388,0.0388,0.0432,0.0437,0.0442,0.0573,0.0461,0.0464,0.0465,0.0651,0.0656,0.0659,0,0,0,0,0,0,0.0361,0.0361,0.037,0.037,0.0371,0.0381,0.038,0.0382,0.0389,0.0409,0.0414,0.0394,0.0432,0.0439,0.0495,0.0571,0.0465,0.0467,0.0647,0.0652,0.0657,0.0765,0,0,0,0,0,0,0.036,0.0361,0.0362,0.0369,0.0371,0.0396,0.038,0.0382,0.039,0.0391,0.0416,0.0421,0.0433,0.0492,0.0498,0.0572,0.0469,0.0642,0.0649,0.0656,0.0757,0.0773,0.0788,0,0,0,0,0,0.036,0.036,0.0361,0.0362,0.0371,0.0397,0.04,0.0406,0.039,0.0409,0.0436,0.042,0.0541,0.0496,0.0502,0.0579,0.0639,0.0647,0.0655,0.075,0.077,0.0787,0,0,0,0,0,0,0.0352,0.0361,0.0363,0.0364,0.0387,0.0398,0.0406,0.0407,0.0439,0.0436,0.0451,0.046,0.0549,0.0544,0.0495,0.0658,0.0594,0.0603,0.0664,0.0683,0.0698,0.0737,0.0471,0,0,0,0,0,0.0351,0.0353,0.0373,0.0373,0.0385,0.0395,0.0403,0.041,0.0435,0.0446,0.047,0.0513,0.0588,0.0614,0.0664,0.0732,0.0709,0.0792,0.0808,0.0821,0.086,0.0888,0.0909,0.0687,0.0687,0.0686,0,0,0.0337,0.0349,0.0344,0.0372,0.0383,0.0418,0.04,0.0416,0.0483,0.0449,0.0535,0.0562,0.0619,0.0719,0.0758,0.0721,0.0865,0.0831,0.0842,0.0875,0.0899,0.092,0.0939,0.0692,0.0691,0.069,0,0,0.0317,0.0333,0.033,0.0364,0.0393,0.0423,0.0431,0.0457,0.0514,0.059,0.0611,0.0672,0.0755,0.0823,0.0869,0.0993,0.0948,0.1018,0.1124,0.1151,0.1168,0.1184,0.114,0.1151,0.1022,0.1022,0.1022,0,0.029,0.0328,0.0335,0.0362,0.0428,0.043,0.0491,0.0539,0.0589,0.0684,0.0636,0.0821,0.0818,0.1004,0.1043,0.1029,0.1017,0.1042,0.1168,0.1184,0.1198,0.1149,0.116,0.1028,0.1027,0.1027,0.1026,0,0.0285,0.0333,0.0343,0.0399,0.0464,0.0516,0.0604,0.0667,0.0726,0.0803,0.0988,0.1001,0.113,0.113,0.112,0.1263,0.1209,0.1181,0.1112,0.1226,0.1167,0.1176,0.1037,0.1035,0.1033,0.1031,0,0,0.0206,0.0316,0.0328,0.0432,0.0518,0.0597,0.071,0.0883,0.1023,0.1071,0.129,0.1355,0.1381,0.1435,0.1435,0.1432,0.1463,0.1355,0.1353,0.1295,0.1486,0.1404,0.1404,0.1462,0.1465,0.1468,0.1386,0,0.0222,0.0334,0.0384,0.0552,0.0663,0.0751,0.0906,0.1058,0.1178,0.1373,0.1451,0.1626,0.1505,0.1584,0.1574,0.1541,0.1503,0.1486,0.14,0.1397,0.1299,0.1419,0.1415,0.1342,0.1394,0.1396,0.1397,0,0.0243,0.0347,0.0512,0.0777,0.0833,0.0927,0.1236,0.1369,0.1607,0.1712,0.1857,0.1921,0.2019,0.1864,0.1826,0.1831,0.1669,0.157,0.1564,0.147,0.1336,0.1249,0.1355,0.1067,0.141,0.1409,0.1408,0,0.0333,0.0478,0.0657,0.0728,0.0967,0.1101,0.1248,0.1487,0.169,0.1936,0.2081,0.2201,0.2294,0.2163,0.1965,0.1913,0.1869,0.1765,0.152,0.1508,0.1482,0.1464,0.1297,0.1684,0.1684,0.1684,0.1685,0,0.0436,0.0603,0.0711,0.0838,0.1114,0.1234,0.1546,0.1695,0.1955,0.2221,0.2278,0.2469,0.2369,0.2343,0.2096,0.1872,0.1967,0.1576,0.1516,0.1513,0.15,0.1227,0.1098,0.1681,0.1682,0.1682,0.1683,0,0.0633,0.0655,0.0899,0.111,0.1183,0.1414,0.1724,0.1936,0.2127,0.2458,0.2555,0.2718,0.2671,0.2497,0.2295,0.2045,0.168,0.1677,0.1651,0.159,0.1076,0.0955,0.0861,0.0759,0.1418,0.1416,0.1414,0,0.0796,0.0914,0.1112,0.122,0.1336,0.1615,0.1811,0.204,0.2253,0.2595,0.2776,0.2852,0.2939,0.2642,0.2238,0.1843,0.1602,0.1531,0.1416,0.1085,0.0906,0.0883,0.0803,0.1392,0.139,0.1389,0.1388,0,0.1141,0.1156,0.1319,0.1492,0.1669,0.1914,0.2181,0.2353,0.2623,0.284,0.3099,0.3189,0.2962,0.2631,0.2122,0.1837,0.1392,0.1483,0.1191,0.0935,0.0861,0.0721,0.1343,0.1376,0.1377,0.1378,0.1378,0.1379,0.139,0.1525,0.1612,0.1802,0.1969,0.2174,0.2362,0.2575,0.287,0.3159,0.327,0.3375,0.2919,0.2255,0.1902,0.1166,0.1207,0.0885,0.0777,0.0792,0.0682,0.1242,0.1177,0.1177,0.1177,0.1177,0.1177,0,0.1662,0.1726,0.1906,0.207,0.2241,0.2294,0.2579,0.2719,0.296,0.3205,0.3387,0.3213,0.2573,0.1973,0.102,0.0541,0.0448,0.0271,0.0227,0.0184,0.071,0.0691,0.0461,0.0462,0.0462,0.0462,0.0463,0.0463,0.1786,0.1937,0.1977,0.2247,0.2358,0.2578,0.2705,0.2877,0.3057,0.327,0.3335,0.3419,0.2872,0.1276,0.0195,-0.0038,-0.0359,-0.0401,-0.0573,-0.0278,-0.0229,-0.0183,-0.0235,-0.0655,-0.0656,-0.1012,-0.1017,-0.102]}],[{"header":{"parameterUnit":"m.s-1","parameterCategory":2,"la1":30.2991,"la2":30.254,"lo1":-89.0895,"lo2":-89.0444,"dy":0.0017,"dx":0.0017,"nx":28,"ny":28,"refTime":"2025-07-11T09:00:00:Z","depth":"2","parameterNumber":2,"parameterNumberName":"U-component_of_CURRENTS"},"data":[0,0,0,0,0,0,0,0,0,0,0,0,0,0,0,0,0,0,0,0,0,0,0,0,0,0,0,0,0,0,0,0,0,0,0,0,0,0,0,0,0,0,0,0,0,0,0,0,0,0,0,0,0,0,0,0,0,0,0.059,0.059,0,0.0612,0.0613,0.0613,0.0605,0.0604,0.0604,0.0603,0.0574,0.0573,0.0573,0,0,0,0,0,0,0,0,0,0,0,0,0,0.0562,0.0563,0.059,0.059,0.0591,0.0612,0.0613,0.0613,0.0605,0.0604,0.0604,0.0603,0.0574,0.0573,0.0573,0,0,0,0,0,0,0,0,0,0,0,0,0,0.0579,0.0563,0.059,0.0588,0.0588,0.0612,0.0613,0.0613,0.0605,0.0604,0.0603,0.0603,0.0574,0.0574,0.0573,0.0589,0,0,0.0572,0.0572,0,0,0,0,0,0,0,0,0.0578,0.058,0.0588,0.0588,0.0588,0.0604,0.0592,0.0602,0.0605,0.06,0.0603,0.0602,0.0579,0.0578,0.0587,0.0588,0.0587,0.0572,0.0572,0.0572,0.0572,0,0,0,0,0,0,0,0.0577,0.058,0.06,0.0589,0.0589,0.0593,0.0595,0.0594,0.0594,0.06,0.06,0.06,0.0579,0.0587,0.0586,0.0586,0.0572,0.0572,0.0572,0.0572,0.0633,0.0635,0,0,0,0,0,0,0.0572,0.0578,0.0599,0.0601,0.058,0.0594,0.0596,0.0601,0.0595,0.0594,0.0601,0.06,0.0588,0.0586,0.0585,0.0613,0.0572,0.0571,0.0571,0.0631,0.0634,0.0636,0,0,0,0,0,0,0.0571,0.0574,0.0598,0.0589,0.0592,0.0596,0.0601,0.0602,0.0611,0.0596,0.0594,0.061,0.0587,0.0585,0.0598,0.0611,0.0571,0.0571,0.0629,0.0632,0.0635,0.0664,0,0,0,0,0,0,0.0571,0.0574,0.058,0.0589,0.0592,0.0625,0.0602,0.0603,0.0612,0.0611,0.0603,0.0599,0.0586,0.0598,0.0597,0.061,0.0571,0.0627,0.0631,0.0634,0.0661,0.0667,0.0673,0,0,0,0,0,0.057,0.0589,0.0581,0.0583,0.06,0.0626,0.0629,0.0629,0.0614,0.0631,0.0625,0.06,0.062,0.06,0.0598,0.0611,0.0625,0.063,0.0634,0.0658,0.0666,0.0673,0,0,0,0,0,0,0.0587,0.059,0.0581,0.0601,0.0614,0.0624,0.0642,0.0634,0.0644,0.0641,0.0619,0.0616,0.0636,0.0627,0.0606,0.0644,0.062,0.0624,0.064,0.0647,0.0653,0.0664,0.057,0,0,0,0,0,0.0591,0.0605,0.0608,0.0628,0.0634,0.0636,0.0646,0.0646,0.0653,0.0656,0.0652,0.0651,0.0654,0.0652,0.0661,0.0675,0.0673,0.0687,0.0693,0.0698,0.071,0.072,0.0727,0.0649,0.0649,0.0649,0,0,0.0604,0.0608,0.0617,0.0632,0.0642,0.0655,0.0641,0.0665,0.0672,0.0651,0.0671,0.0675,0.0666,0.0688,0.0695,0.0678,0.0723,0.0704,0.0708,0.0716,0.0725,0.0732,0.0738,0.0652,0.0652,0.0651,0,0,0.0636,0.0641,0.0657,0.0667,0.0681,0.0683,0.0689,0.0705,0.0709,0.0728,0.0716,0.0728,0.0738,0.0734,0.0728,0.0775,0.0759,0.0787,0.0816,0.0826,0.0831,0.0836,0.0848,0.0854,0.0783,0.0783,0.0783,0,0.0647,0.0662,0.067,0.0684,0.0687,0.0694,0.0705,0.0718,0.0737,0.0743,0.074,0.077,0.0755,0.077,0.079,0.0785,0.0798,0.078,0.0831,0.0836,0.0841,0.0851,0.0857,0.0785,0.0785,0.0785,0.0785,0,0.0682,0.069,0.0707,0.0715,0.0727,0.0747,0.0752,0.078,0.0783,0.0783,0.0815,0.0818,0.0834,0.0834,0.0822,0.0856,0.0858,0.0839,0.0804,0.085,0.0859,0.0864,0.0788,0.0787,0.0787,0.0786,0,0,0.0705,0.0723,0.0726,0.0728,0.074,0.0757,0.0781,0.0798,0.0824,0.0841,0.0885,0.0876,0.0889,0.0889,0.0887,0.0895,0.093,0.0891,0.089,0.089,0.0967,0.1043,0.1056,0.0926,0.0927,0.0928,0.0961,0,0.0722,0.0753,0.0746,0.0767,0.0784,0.0789,0.0806,0.0825,0.0856,0.0913,0.0912,0.0964,0.0904,0.0951,0.0935,0.0933,0.0948,0.0924,0.0936,0.0936,0.0987,0.1066,0.0993,0.1024,0.0966,0.0967,0.0968,0,0.0756,0.0764,0.0799,0.0793,0.0797,0.0816,0.0862,0.0889,0.0951,0.0969,0.101,0.1044,0.1059,0.104,0.1007,0.1,0.0998,0.0991,0.0992,0.1058,0.1023,0.0971,0.1036,0.0977,0.0976,0.0975,0.0975,0,0.0797,0.0796,0.0828,0.0832,0.0839,0.086,0.0875,0.0923,0.0963,0.1065,0.1123,0.1117,0.1176,0.1132,0.1123,0.1071,0.1132,0.1042,0.1107,0.1111,0.105,0.1049,0.1067,0.1067,0.1067,0.1067,0.1067,0,0.0836,0.0857,0.0858,0.0881,0.0906,0.0907,0.097,0.0992,0.107,0.1115,0.1178,0.123,0.1215,0.1255,0.1183,0.1183,0.1165,0.1144,0.1139,0.1063,0.1062,0.1016,0.101,0.1068,0.1068,0.1068,0.1067,0,0.089,0.0917,0.0936,0.0931,0.0945,0.0981,0.1028,0.105,0.1141,0.1233,0.1286,0.1349,0.1355,0.1367,0.1344,0.1297,0.1275,0.1303,0.1234,0.1223,0.1214,0.1209,0.1306,0.1309,0.1312,0.1314,0.1316,0,0.0909,0.0937,0.096,0.0967,0.0973,0.1024,0.1029,0.1098,0.1122,0.1264,0.1284,0.1415,0.1447,0.1487,0.1454,0.142,0.138,0.1371,0.1251,0.1261,0.1246,0.1236,0.1228,0.1164,0.1164,0.1165,0.1165,0,0.0895,0.0929,0.0926,0.0946,0.0969,0.0996,0.1022,0.107,0.1142,0.1233,0.1314,0.1404,0.1494,0.1474,0.155,0.1468,0.1354,0.1381,0.1422,0.1141,0.1137,0.1119,0.1113,0.1169,0.1169,0.1169,0.1168,0.1168,0.0844,0.0844,0.0848,0.0873,0.0905,0.0934,0.0963,0.0988,0.1078,0.1202,0.1276,0.138,0.1433,0.1475,0.1439,0.1405,0.1423,0.1331,0.1324,0.1318,0.1323,0.1327,0.1394,0.1395,0.1396,0.1396,0.1397,0,0.0724,0.0755,0.0746,0.0793,0.0803,0.0866,0.0905,0.0927,0.101,0.1143,0.1257,0.1217,0.1307,0.1327,0.132,0.1343,0.1242,0.1255,0.1122,0.1123,0.1122,0.1109,0.1127,0.1126,0.1125,0.1124,0,0,0.067,0.0639,0.0654,0.068,0.0727,0.077,0.0807,0.0853,0.0939,0.1016,0.1103,0.1279,0.1346,0.1236,0.123,0.1203,0.113,0.1139,0.1364,0.1212,0.1209,0.1188,0.1175,0,0,0,0,0]},{"header":{"parameterUnit":"m.s-1","parameterCategory":2,"la1":30.2991,"la2":30.254,"lo1":-89.0895,"lo2":-89.0444,"dy":0.0017,"dx":0.0017,"nx":28,"ny":28,"refTime":"2025-07-11T09:00:00:Z","depth":"2","parameterNumber":3,"parameterNumberName":"V-component_of_CURRENTS"},"data":[0,0,0,0,0,0,0,0,0,0,0,0,0,0,0,0,0,0,0,0,0,0,0,0,0,0,0,0,0,0,0,0,0,0,0,0,0,0,0,0,0,0,0,0,0,0,0,0,0,0,0,0,0,0,0,0,0,0,-0.0904,-0.0903,0,-0.084,-0.0839,-0.0838,-0.0811,-0.0812,-0.0812,-0.0813,-0.0691,-0.0687,-0.0684,0,0,0,0,0,0,0,0,0,0,0,0,0,-0.0942,-0.0941,-0.0904,-0.0903,-0.0903,-0.084,-0.0839,-0.0838,-0.0811,-0.0812,-0.0812,-0.0813,-0.0692,-0.0688,-0.0683,0,0,0,0,0,0,0,0,0,0,0,0,0,-0.0904,-0.0941,-0.0904,-0.0884,-0.0882,-0.084,-0.0839,-0.0837,-0.0811,-0.0812,-0.0812,-0.0813,-0.0693,-0.0688,-0.0683,-0.0638,0,0,-0.0666,-0.0664,0,0,0,0,0,0,0,0,-0.0906,-0.0902,-0.0888,-0.0885,-0.0883,-0.0837,-0.0808,-0.0769,-0.0811,-0.0835,-0.0813,-0.0813,-0.0735,-0.0727,-0.071,-0.0632,-0.0627,-0.0666,-0.0662,-0.066,-0.0659,0,0,0,0,0,0,0,-0.0909,-0.0904,-0.0876,-0.0887,-0.0884,-0.0857,-0.0853,-0.08,-0.078,-0.0833,-0.0832,-0.0829,-0.0733,-0.0716,-0.0707,-0.0625,-0.0666,-0.0661,-0.0658,-0.0656,-0.0535,-0.0535,0,0,0,0,0,0,-0.0925,-0.0907,-0.0878,-0.0874,-0.0899,-0.0857,-0.0852,-0.0849,-0.0781,-0.0773,-0.0828,-0.0828,-0.0724,-0.0713,-0.0703,-0.0668,-0.066,-0.0655,-0.0652,-0.0535,-0.0535,-0.0535,0,0,0,0,0,0,-0.0926,-0.0923,-0.088,-0.0891,-0.0885,-0.0856,-0.0853,-0.0847,-0.0827,-0.0779,-0.0769,-0.0814,-0.0724,-0.071,-0.0668,-0.0662,-0.0653,-0.0648,-0.0535,-0.0535,-0.0535,-0.0584,0,0,0,0,0,0,-0.0927,-0.0923,-0.0918,-0.0893,-0.0885,-0.0845,-0.0852,-0.0846,-0.0826,-0.0824,-0.0763,-0.0753,-0.0724,-0.0676,-0.0662,-0.0654,-0.0643,-0.0535,-0.0535,-0.0535,-0.0582,-0.0585,-0.0588,0,0,0,0,0,-0.0929,-0.0908,-0.0918,-0.0914,-0.0881,-0.0844,-0.0836,-0.0816,-0.0825,-0.0803,-0.0784,-0.0755,-0.0667,-0.0671,-0.0655,-0.0646,-0.0535,-0.0535,-0.0535,-0.0581,-0.0585,-0.0588,0,0,0,0,0,0,-0.0905,-0.0904,-0.0914,-0.0891,-0.0871,-0.084,-0.0816,-0.0814,-0.0781,-0.0781,-0.0748,-0.0735,-0.07,-0.0664,-0.067,-0.0613,-0.0598,-0.0595,-0.0638,-0.0641,-0.0644,-0.0639,-0.0639,0,0,0,0,0,-0.0905,-0.0898,-0.0888,-0.0867,-0.0861,-0.0843,-0.0825,-0.0815,-0.0789,-0.0775,-0.0744,-0.0712,-0.0686,-0.0658,-0.0623,-0.0579,-0.0583,-0.0565,-0.0569,-0.0571,-0.0557,-0.0584,-0.0588,-0.0535,-0.0535,-0.0535,0,0,-0.089,-0.0888,-0.0882,-0.0863,-0.0848,-0.0828,-0.0832,-0.0801,-0.0791,-0.0765,-0.0735,-0.0717,-0.0679,-0.0646,-0.0626,-0.0614,-0.0593,-0.0572,-0.0574,-0.0558,-0.0584,-0.059,-0.0594,-0.0535,-0.0535,-0.0535,0,0,-0.0852,-0.0856,-0.084,-0.083,-0.0813,-0.0804,-0.0799,-0.0775,-0.077,-0.0742,-0.0738,-0.0728,-0.066,-0.0653,-0.0637,-0.0631,-0.0615,-0.061,-0.0609,-0.0636,-0.0641,-0.0646,-0.0682,-0.0689,-0.0605,-0.0605,-0.0605,0,-0.0833,-0.0826,-0.0823,-0.0807,-0.0802,-0.0797,-0.078,-0.0768,-0.0736,-0.0738,-0.0734,-0.0687,-0.067,-0.0646,-0.0655,-0.0639,-0.0648,-0.0602,-0.0643,-0.0647,-0.065,-0.0686,-0.0694,-0.0607,-0.0607,-0.0607,-0.0606,0,-0.0792,-0.079,-0.0775,-0.077,-0.0753,-0.0735,-0.0733,-0.0711,-0.0715,-0.0725,-0.0707,-0.0689,-0.0659,-0.0663,-0.0655,-0.0662,-0.0661,-0.0654,-0.0638,-0.0659,-0.0695,-0.0702,-0.0611,-0.061,-0.0609,-0.0608,0,0,-0.0746,-0.0751,-0.0747,-0.0754,-0.0742,-0.0723,-0.0701,-0.0695,-0.0676,-0.0681,-0.0666,-0.0667,-0.067,-0.0652,-0.0643,-0.0668,-0.073,-0.0667,-0.0667,-0.0712,-0.0793,-0.077,-0.0775,-0.0728,-0.0729,-0.0729,-0.0818,0,-0.0721,-0.0702,-0.0709,-0.0693,-0.0687,-0.0684,-0.0664,-0.0659,-0.0644,-0.0625,-0.0653,-0.0619,-0.0663,-0.0622,-0.0674,-0.0709,-0.0744,-0.0707,-0.0756,-0.0758,-0.0743,-0.078,-0.0712,-0.0783,-0.0825,-0.0826,-0.0827,0,-0.0677,-0.0684,-0.0657,-0.0676,-0.0672,-0.0648,-0.0608,-0.0591,-0.0577,-0.0565,-0.056,-0.0557,-0.0598,-0.0605,-0.072,-0.0691,-0.0741,-0.0778,-0.0783,-0.074,-0.0746,-0.0762,-0.0793,-0.0837,-0.0837,-0.0836,-0.0835,0,-0.0642,-0.0649,-0.0631,-0.0632,-0.0633,-0.0609,-0.0603,-0.057,-0.0539,-0.0494,-0.0447,-0.0517,-0.0499,-0.0605,-0.0694,-0.0703,-0.0809,-0.0836,-0.0864,-0.0864,-0.0803,-0.0795,-0.0895,-0.0895,-0.0895,-0.0895,-0.0895,0,-0.0612,-0.061,-0.0607,-0.0602,-0.0581,-0.058,-0.0515,-0.0507,-0.0451,-0.041,-0.0407,-0.0367,-0.049,-0.0554,-0.0679,-0.0799,-0.0809,-0.0868,-0.0883,-0.0819,-0.0812,-0.0844,-0.0837,-0.0898,-0.0897,-0.0897,-0.0896,0,-0.0592,-0.0568,-0.0563,-0.0565,-0.0554,-0.0531,-0.0473,-0.0425,-0.0361,-0.028,-0.025,-0.0269,-0.0371,-0.0491,-0.0647,-0.0742,-0.0868,-0.0887,-0.0806,-0.081,-0.092,-0.0914,-0.0974,-0.0974,-0.0974,-0.0974,-0.0974,0,-0.0596,-0.0589,-0.0555,-0.0524,-0.0522,-0.0471,-0.043,-0.0378,-0.031,-0.0227,-0.0199,-0.0225,-0.0255,-0.0479,-0.0632,-0.0822,-0.0862,-0.0852,-0.0862,-0.0918,-0.0927,-0.0921,-0.0916,-0.0819,-0.0818,-0.0817,-0.0816,0,-0.0647,-0.0606,-0.0598,-0.0532,-0.047,-0.0409,-0.0347,-0.0269,-0.0184,-0.0104,-0.0057,-0.0067,-0.0234,-0.0395,-0.0591,-0.0718,-0.0832,-0.0836,-0.0911,-0.0797,-0.0775,-0.0783,-0.0782,-0.0806,-0.0807,-0.0808,-0.0809,-0.0809,-0.0688,-0.0671,-0.0608,-0.0545,-0.0468,-0.0347,-0.0252,-0.0169,-0.0045,0.0098,0.0029,0.0057,-0.014,-0.0373,-0.0559,-0.0723,-0.0776,-0.0831,-0.0834,-0.0837,-0.079,-0.0768,-0.0791,-0.0791,-0.0792,-0.0793,-0.0793,0,-0.0717,-0.0663,-0.0635,-0.0494,-0.0394,-0.0344,-0.0193,-0.008,0.0092,0.0173,0.0229,0.0094,-0.0058,-0.0279,-0.0493,-0.066,-0.0664,-0.0719,-0.0691,-0.07,-0.0708,-0.0654,-0.0619,-0.0618,-0.0618,-0.0618,0,0,-0.0691,-0.0628,-0.0594,-0.0421,-0.0331,-0.014,-0.0021,0.0098,0.0199,0.0301,0.035,0.0312,0.0032,-0.0094,-0.0342,-0.0462,-0.0532,-0.048,-0.0604,-0.055,-0.0554,-0.076,-0.0685,0,0,0,0,0]}],[{"header":{"parameterUnit":"m.s-1","parameterCategory":2,"la1":30.2991,"la2":30.254,"lo1":-89.0895,"lo2":-89.0444,"dy":0.0017,"dx":0.0017,"nx":28,"ny":28,"refTime":"2025-07-11T09:00:00:Z","depth":"4","parameterNumber":2,"parameterNumberName":"U-component_of_CURRENTS"},"data":[0,0,0,0,0,0,0,0,0,0,0,0,0,0,0,0,0,0,0,0,0,0,0,0,0,0,0,0,0,0,0,0,0,0,0,0,0,0,0,0,0,0,0,0,0,0,0,0,0,0,0,0,0,0,0,0,0,0,0.032,0.0321,0,0.0348,0.0348,0.0348,0.0376,0.0377,0.0377,0.0378,0.0424,0.0425,0.0426,0,0,0,0,0,0,0,0,0,0,0,0,0,0.0251,0.0252,0.032,0.0321,0.0321,0.0348,0.0348,0.0348,0.0376,0.0377,0.0377,0.0378,0.0424,0.0425,0.0426,0,0,0,0,0,0,0,0,0,0,0,0,0,0.0278,0.0252,0.032,0.034,0.0343,0.0348,0.0348,0.0348,0.0376,0.0377,0.0378,0.0378,0.0424,0.0425,0.0426,0.0413,0,0,0.0429,0.0429,0,0,0,0,0,0,0,0,0.0276,0.028,0.0337,0.0339,0.0342,0.0362,0.0341,0.0372,0.0375,0.036,0.0378,0.0379,0.0406,0.0409,0.0408,0.0415,0.0417,0.0429,0.0429,0.043,0.043,0,0,0,0,0,0,0,0.0274,0.0278,0.0328,0.0337,0.034,0.0334,0.0339,0.0346,0.0376,0.0362,0.0364,0.0372,0.0407,0.0407,0.0409,0.0418,0.0429,0.043,0.043,0.0431,0.0465,0.0465,0,0,0,0,0,0,0.0277,0.0277,0.0328,0.0329,0.0313,0.0335,0.0341,0.0352,0.0376,0.0381,0.0371,0.0373,0.0404,0.0408,0.0411,0.0449,0.043,0.0431,0.0431,0.0465,0.0465,0.0465,0,0,0,0,0,0,0.0276,0.0282,0.0326,0.0306,0.0311,0.0336,0.0348,0.0352,0.0372,0.0383,0.0388,0.039,0.0405,0.041,0.0429,0.0449,0.0431,0.0432,0.0464,0.0465,0.0465,0.0492,0,0,0,0,0,0,0.0274,0.0281,0.029,0.0306,0.0313,0.0341,0.0348,0.0352,0.0375,0.0379,0.04,0.0404,0.0406,0.0427,0.043,0.045,0.0433,0.0464,0.0464,0.0465,0.0491,0.0493,0.0496,0,0,0,0,0,0.0271,0.0279,0.0291,0.0297,0.0325,0.0342,0.0345,0.0363,0.0376,0.0384,0.0397,0.0405,0.0433,0.0428,0.0431,0.0452,0.0463,0.0464,0.0465,0.049,0.0493,0.0496,0,0,0,0,0,0,0.0249,0.0283,0.0296,0.0314,0.0333,0.0348,0.0359,0.0372,0.0388,0.0399,0.0406,0.0411,0.0432,0.0436,0.0431,0.0462,0.045,0.0452,0.0468,0.0471,0.0474,0.0493,0.0434,0,0,0,0,0,0.025,0.0269,0.0296,0.031,0.0324,0.0345,0.0356,0.0373,0.0389,0.0398,0.0414,0.0428,0.0432,0.0448,0.0451,0.0472,0.0484,0.0488,0.049,0.0492,0.0509,0.0523,0.0529,0.0468,0.0468,0.0468,0,0,0.024,0.0266,0.0273,0.0307,0.0325,0.0347,0.0354,0.0381,0.0402,0.04,0.0435,0.0434,0.0436,0.0455,0.0467,0.0468,0.0517,0.0493,0.0495,0.0511,0.0524,0.0531,0.0536,0.0468,0.0468,0.0468,0,0,0.0235,0.0261,0.0277,0.0301,0.034,0.0356,0.037,0.0401,0.0421,0.0446,0.0447,0.046,0.0478,0.0483,0.0486,0.0504,0.0521,0.051,0.0551,0.0564,0.0569,0.0574,0.0607,0.0614,0.0521,0.0521,0.0521,0,0.0222,0.0254,0.0281,0.0309,0.0334,0.0364,0.039,0.041,0.0443,0.0466,0.0465,0.0495,0.049,0.0516,0.052,0.0511,0.0531,0.054,0.0568,0.0573,0.0578,0.061,0.0618,0.0523,0.0522,0.0522,0.0522,0,0.0231,0.0264,0.0278,0.0327,0.0353,0.0381,0.042,0.0452,0.0481,0.0502,0.0541,0.0535,0.0558,0.0554,0.0543,0.0578,0.0586,0.0561,0.0563,0.0586,0.0618,0.0626,0.0525,0.0524,0.0524,0.0523,0,0,0.0183,0.0267,0.0272,0.0309,0.0372,0.0394,0.0442,0.0491,0.053,0.0561,0.0606,0.0608,0.062,0.0623,0.0616,0.0632,0.067,0.0621,0.0621,0.0659,0.0726,0.0692,0.0697,0.0655,0.0657,0.0658,0.0739,0,0.0183,0.0239,0.0282,0.0338,0.0374,0.0429,0.0471,0.0522,0.0562,0.061,0.063,0.0655,0.0643,0.0652,0.0671,0.0666,0.0692,0.0652,0.0694,0.0696,0.0667,0.0705,0.0662,0.0745,0.0747,0.0748,0.0749,0,0.0172,0.0223,0.0273,0.0369,0.0389,0.0423,0.0508,0.0552,0.0625,0.066,0.0706,0.0716,0.0754,0.0722,0.0769,0.0751,0.0749,0.0745,0.0747,0.0714,0.0676,0.0714,0.0763,0.0762,0.0761,0.076,0.0759,0,0.0125,0.0215,0.0258,0.0288,0.039,0.0428,0.0484,0.0564,0.0613,0.0688,0.0729,0.0777,0.0802,0.0817,0.082,0.0799,0.0868,0.0828,0.0804,0.0803,0.0797,0.079,0.0858,0.0858,0.0858,0.0858,0.0857,0,0.0111,0.0149,0.0242,0.0266,0.0329,0.0412,0.0477,0.0543,0.0636,0.0698,0.0749,0.0792,0.0826,0.0864,0.0858,0.0874,0.0902,0.0832,0.0823,0.0807,0.0801,0.0803,0.0796,0.0861,0.086,0.0859,0.0859,0,0.0059,0.0115,0.0161,0.0264,0.0304,0.0344,0.0469,0.0519,0.0619,0.0703,0.0728,0.0818,0.0873,0.0911,0.0936,0.0917,0.0924,0.0915,0.093,0.0918,0.0845,0.0838,0.0906,0.0906,0.0905,0.0905,0.0905,0,0.0051,0.0063,0.0138,0.0165,0.0213,0.0296,0.0357,0.0485,0.0548,0.0707,0.0742,0.083,0.088,0.0922,0.0943,0.0968,0.094,0.0952,0.0871,0.0866,0.0851,0.0845,0.0838,0.0904,0.0904,0.0904,0.0904,0,0.0022,0.0019,0.0053,0.0106,0.016,0.0238,0.0343,0.0393,0.055,0.0634,0.0744,0.0795,0.0868,0.0897,0.0936,0.0934,0.0949,0.0947,0.0946,0.087,0.0864,0.0848,0.0843,0.0902,0.0903,0.0903,0.0903,0,-0.0023,-0.0024,-0.0001,0.0056,0.011,0.0189,0.0252,0.0366,0.0455,0.065,0.0669,0.0782,0.0856,0.088,0.0905,0.0922,0.0894,0.0854,0.0858,0.086,0.0804,0.0787,0.0813,0,0,0,0,0,-0.0056,-0.0054,-0.0026,0.0033,0.0085,0.014,0.0255,0.0328,0.0475,0.0539,0.0621,0.0688,0.0765,0.0803,0.081,0.0863,0.088,0.0866,0.0831,0.0894,0.0896,0.0833,0,0,0,0,0,0,-0.0084,-0.008,-0.0049,0.0012,0.0061,0.0139,0.0212,0.0315,0.0368,0.0504,0.0541,0.0639,0.0704,0.0752,0.0792,0.0807,0.0771,0.093,0.0928,0.0894,0.0895,0.0896,0.0832,0,0,0,0,0]},{"header":{"parameterUnit":"m.s-1","parameterCategory":2,"la1":30.2991,"la2":30.254,"lo1":-89.0895,"lo2":-89.0444,"dy":0.0017,"dx":0.0017,"nx":28,"ny":28,"refTime":"2025-07-11T09:00:00:Z","depth":"4","parameterNumber":3,"parameterNumberName":"V-component_of_CURRENTS"},"data":[0,0,0,0,0,0,0,0,0,0,0,0,0,0,0,0,0,0,0,0,0,0,0,0,0,0,0,0,0,0,0,0,0,0,0,0,0,0,0,0,0,0,0,0,0,0,0,0,0,0,0,0,0,0,0,0,0,0,-0.0095,-0.0095,0,-0.0148,-0.0148,-0.0149,-0.0198,-0.0199,-0.0199,-0.02,-0.0305,-0.0307,-0.0309,0,0,0,0,0,0,0,0,0,0,0,0,0,-0.0064,-0.0064,-0.0095,-0.0095,-0.0096,-0.0147,-0.0148,-0.0149,-0.0198,-0.0199,-0.0199,-0.02,-0.0304,-0.0306,-0.0309,0,0,0,0,0,0,0,0,0,0,0,0,0,-0.0093,-0.0064,-0.0095,-0.0127,-0.013,-0.0147,-0.0148,-0.0149,-0.0198,-0.0199,-0.02,-0.02,-0.0303,-0.0306,-0.0309,-0.0312,0,0,-0.032,-0.0321,0,0,0,0,0,0,0,0,-0.0091,-0.0094,-0.0121,-0.0125,-0.0128,-0.0167,-0.0176,-0.0206,-0.0198,-0.0172,-0.02,-0.0201,-0.0263,-0.0269,-0.0277,-0.0316,-0.0321,-0.032,-0.0322,-0.0323,-0.0324,0,0,0,0,0,0,0,-0.0089,-0.0092,-0.0116,-0.0122,-0.0126,-0.0148,-0.0153,-0.0182,-0.0212,-0.0174,-0.0178,-0.0184,-0.0265,-0.0273,-0.028,-0.0322,-0.032,-0.0323,-0.0325,-0.0326,-0.0445,-0.0447,0,0,0,0,0,0,-0.008,-0.009,-0.0114,-0.0117,-0.0112,-0.0148,-0.0153,-0.0154,-0.0211,-0.022,-0.0183,-0.0186,-0.0267,-0.0276,-0.0283,-0.034,-0.0323,-0.0326,-0.0328,-0.0444,-0.0446,-0.0447,0,0,0,0,0,0,-0.0079,-0.0081,-0.0112,-0.0105,-0.0111,-0.0147,-0.0147,-0.0154,-0.0183,-0.0217,-0.0228,-0.0207,-0.0268,-0.0279,-0.0329,-0.0342,-0.0328,-0.0331,-0.0443,-0.0445,-0.0446,-0.042,0,0,0,0,0,0,-0.0078,-0.0081,-0.0088,-0.0104,-0.0111,-0.013,-0.0147,-0.0155,-0.0184,-0.0189,-0.0241,-0.025,-0.027,-0.0324,-0.0332,-0.0347,-0.0334,-0.0441,-0.0444,-0.0446,-0.042,-0.0421,-0.0422,0,0,0,0,0,-0.0076,-0.0075,-0.0088,-0.0091,-0.0116,-0.0131,-0.0136,-0.0165,-0.0184,-0.0195,-0.0237,-0.025,-0.0344,-0.0327,-0.0337,-0.0353,-0.044,-0.0443,-0.0446,-0.0419,-0.0421,-0.0422,0,0,0,0,0,0,-0.0072,-0.0081,-0.0095,-0.0099,-0.0119,-0.0139,-0.0153,-0.0174,-0.0214,-0.0227,-0.0262,-0.0274,-0.0325,-0.0346,-0.0326,-0.0396,-0.0396,-0.04,-0.0373,-0.0374,-0.0375,-0.0366,-0.0336,0,0,0,0,0,-0.0072,-0.0071,-0.009,-0.0096,-0.0106,-0.0134,-0.0149,-0.0168,-0.0199,-0.0218,-0.0257,-0.0301,-0.0339,-0.0362,-0.0399,-0.0433,-0.0444,-0.0453,-0.0454,-0.0454,-0.0455,-0.0495,-0.0499,-0.0456,-0.0456,-0.0456,0,0,-0.007,-0.0078,-0.0077,-0.0095,-0.0114,-0.0119,-0.0146,-0.0168,-0.018,-0.0223,-0.0264,-0.0309,-0.0351,-0.0391,-0.0416,-0.0412,-0.0468,-0.0458,-0.0458,-0.0458,-0.0498,-0.0502,-0.0505,-0.0457,-0.0457,-0.0457,0,0,-0.0056,-0.0076,-0.0067,-0.0081,-0.0108,-0.0123,-0.0133,-0.0166,-0.0192,-0.0234,-0.027,-0.0321,-0.038,-0.0408,-0.043,-0.0462,-0.0476,-0.0482,-0.0476,-0.0514,-0.0517,-0.052,-0.0512,-0.0515,-0.0479,-0.0479,-0.0479,0,-0.0059,-0.005,-0.0071,-0.0069,-0.0081,-0.0123,-0.0123,-0.0149,-0.0198,-0.0226,-0.0248,-0.035,-0.0384,-0.043,-0.0443,-0.0462,-0.0476,-0.0461,-0.0513,-0.0517,-0.052,-0.0511,-0.0515,-0.0478,-0.0478,-0.0478,-0.0478,0,-0.0033,-0.0035,-0.0035,-0.0042,-0.0058,-0.0069,-0.0101,-0.0137,-0.0182,-0.0212,-0.0285,-0.034,-0.0401,-0.0421,-0.0442,-0.049,-0.0486,-0.0509,-0.0501,-0.0522,-0.0512,-0.0516,-0.0477,-0.0477,-0.0477,-0.0478,0,0,-0.0035,-0.0015,-0.0024,-0.0027,-0.0048,-0.0065,-0.0086,-0.0125,-0.0162,-0.022,-0.0268,-0.0337,-0.0384,-0.0412,-0.0452,-0.0486,-0.0513,-0.051,-0.0512,-0.0486,-0.057,-0.0519,-0.0518,-0.0551,-0.0553,-0.0554,-0.0541,0,-0.002,-0.0003,0.0004,-0.0002,-0.0007,-0.0041,-0.0059,-0.0105,-0.0161,-0.022,-0.0284,-0.0351,-0.0373,-0.0422,-0.0453,-0.0514,-0.0527,-0.0512,-0.0567,-0.0568,-0.0509,-0.0523,-0.0558,-0.0544,-0.0544,-0.0545,-0.0546,0,-0.002,-0.0007,0.0001,0.0001,-0.0006,-0.0019,-0.0084,-0.0104,-0.0178,-0.022,-0.0287,-0.0348,-0.041,-0.0435,-0.0509,-0.0503,-0.0531,-0.0563,-0.0564,-0.0531,-0.0526,-0.0529,-0.0553,-0.0552,-0.0552,-0.0551,-0.0551,0,-0.0057,-0.0025,-0.0023,-0.0025,-0.0025,-0.0047,-0.0062,-0.0126,-0.015,-0.024,-0.0272,-0.0354,-0.0407,-0.0464,-0.0518,-0.0531,-0.0585,-0.061,-0.0575,-0.0569,-0.0628,-0.0625,-0.0651,-0.0651,-0.0651,-0.0651,-0.0651,0,-0.0075,-0.0083,-0.0045,-0.0059,-0.0072,-0.0072,-0.0114,-0.0146,-0.0185,-0.0199,-0.0283,-0.0302,-0.0426,-0.0468,-0.0513,-0.0539,-0.0575,-0.0569,-0.0572,-0.0614,-0.061,-0.0628,-0.0626,-0.0651,-0.0651,-0.0651,-0.0651,0,-0.0148,-0.0116,-0.0117,-0.0099,-0.0099,-0.0127,-0.0127,-0.0139,-0.0183,-0.0203,-0.0229,-0.0286,-0.0335,-0.0417,-0.0505,-0.0522,-0.0564,-0.0558,-0.0558,-0.0562,-0.052,-0.0517,-0.0531,-0.0529,-0.0527,-0.0526,-0.0525,0,-0.0182,-0.0189,-0.0162,-0.0142,-0.014,-0.0157,-0.0147,-0.0162,-0.0154,-0.0166,-0.0156,-0.0221,-0.0258,-0.0321,-0.0413,-0.0488,-0.0498,-0.0513,-0.0556,-0.0511,-0.0513,-0.0511,-0.051,-0.0523,-0.0523,-0.0522,-0.0522,0,-0.0232,-0.0228,-0.0203,-0.0173,-0.0157,-0.0139,-0.0123,-0.0117,-0.0104,-0.0131,-0.0099,-0.0149,-0.0188,-0.0276,-0.0341,-0.039,-0.0514,-0.0499,-0.0504,-0.0543,-0.0502,-0.0505,-0.0505,-0.0517,-0.0518,-0.0518,-0.0518,0,-0.0254,-0.0241,-0.019,-0.0175,-0.0142,-0.0111,-0.0114,-0.0064,-0.0064,-0.0059,-0.0034,-0.0087,-0.0135,-0.0219,-0.0262,-0.0329,-0.0356,-0.0385,-0.0396,-0.0402,-0.0379,-0.0309,-0.0264,0,0,0,0,0,-0.0266,-0.0221,-0.0181,-0.0144,-0.0115,-0.0115,-0.0068,-0.0057,-0.0046,-0.0009,-0.0024,-0.0047,-0.0121,-0.0154,-0.0213,-0.0254,-0.0382,-0.0324,-0.0425,-0.0489,-0.0495,-0.0488,0,0,0,0,0,0,-0.0244,-0.0196,-0.0169,-0.0123,-0.011,-0.008,-0.006,-0.0046,-0.0026,-0.0019,-0.0056,-0.0069,-0.0149,-0.0104,-0.0223,-0.0242,-0.0311,-0.0365,-0.0366,-0.0486,-0.0491,-0.0496,-0.049,0,0,0,0,0]}]]